Location: Hilton Head Island
(32.2163°N, 80.7526°W)
Time: 21:03:43
(UTC-05:00)

Explorer 7 - Pass Details

Date: 23 February 2026
Orbit: 430 x 542 km, 50.2° (Epoch: 5 March)

Event Time Altitude Azimuth Distance (km) Brightness Sun altitude
Rises 20:36:10 0° 301° (WNW) 2,554 11.2 -30.3°
Reaches altitude 10° 20:38:29 10° 290° (WNW) 1,692 10.2 -30.8°
Enters shadow 20:40:07 21° 272° (W) 1,183 9.2 -31.2°
Maximum altitude 20:41:51 30° 229° (SW) 938 - -31.5°
Drops below altitude 10° 20:45:20 10° 167° (SSE) 1,741 - -32.2°
Sets 20:47:45 0° 157° (SSE) 2,643 - -32.7°
